Location: Kavul?ru
(16.6288°N, 80.5832°E)
Time: 08:44:31
(UTC+00:00)

PSLV R/B - Pass Details

Date: 15 May 2026
Orbit: 558 x 586 km, 98.0° (Epoch: 6 June)

Event Time Altitude Azimuth Distance (km) Brightness Sun altitude
Exits shadow 13:57:55 - 168° (SSE) 2,174 6.0 -13.4°
Reaches altitude 10° 13:58:35 10° 168° (SSE) 1,898 5.7 -13.5°
Maximum altitude 14:02:43 90° 50° (NE) 589 3.4 -14.4°
Drops below altitude 10° 14:06:51 10° 348° (NNW) 1,906 6.6 -15.3°
Sets 14:09:00 0° 349° (NNW) 2,807 7.5 -15.8°
